AirNav   Everest Fuels
 
 1086 users online  

CYAM Sault Ste Marie Airport
Sault Ste Marie, Ontario, Canada

GOING TO SAULT STE MARIE?


FAA INFORMATION EFFECTIVE 10 SEPTEMBER 2020

The information below comes from the U.S. Federal Aviation Administration (FAA). The FAA is not the official source of data for facilities located outside the United States, and THESE RECORDS ARE LIKELY NOT COMPLETE OR CORRECT.

Location

FAA Identifier: CYAM
Lat/Long: 46-29-06.0000N 084-30-34.0000W
46-29.100000N 084-30.566667W
46.4850000,-84.5094444
(estimated)
Elevation: 630 ft. / 192 m (estimated)
Variation: 07W ()
From city: 8 miles WSW of SAULT STE MARIE,
Time zone: UTC -4 (UTC -5 during Standard Time)
Zip code: 49710

Airport Operations

Airport use: Open to the public
Activation date: 03/2005
Control tower: no
ARTCC: TORONTO CENTER
FSS: LONDON FIC FLIGHT SERVICE STATION
Attendance: 
Segmented circle: no

Airport Communications

WX ASOS at ANJ (6 nm E): 118.375 (906-253-9523)
WX AWOS-3PT at CIU (14 nm S): 127.575 (906-495-7134)

Nearby radio navigation aids

VOR radial/distance  VOR name  Freq  Var
SSMr303/9.2SAULT STE MARIE VOR/DME112.2004W

 
NDB name  Hdg/Dist  Freq  Var  ID
KOLOE015/9.240007WCI -.-. ..

Airport Services

Runway Information

Runway 4/22

Dimensions: 6000 x 200 ft. / 1829 x 61 m
Surface: asphalt
RUNWAY 4  RUNWAY 22
Traffic pattern: leftleft

Runway 12/30

Dimensions: 6000 x 200 ft. / 1829 x 61 m
Surface: asphalt
RUNWAY 12  RUNWAY 30
Traffic pattern: leftleft

Airport Ownership and Management from official FAA records

Ownership: Publicly-owned

Instrument Procedures

There are no published instrument procedures at CYAM.

Some nearby airports with instrument procedures:

KANJ - Sault Ste Marie Municipal Airport/Sanderson Field (6 nm E)
KCIU - Chippewa County International Airport (14 nm S)
83D - Mackinac County Airport (37 nm S)
KMCD - Mackinac Island Airport (38 nm S)
KERY - Luce County Airport (41 nm W)
 
Loc | Ops | Rwys | IFR | FBO | Links
Com | Nav | Svcs | Stats | Notes
Aerial photo
No photo
 
Airport distance calculator
Flying to Sault Ste Marie Airport? Find the distance to fly.

From to CYAM

Sunrise and sunset
Times for 18-Sep-2020
 Local
(UTC-4)
 Zulu
(UTC)
Morning civil twilight06:5210:52
Sunrise07:2211:22
Sunset19:4223:42
Evening civil twilight20:1200:12

Current date and time
Zulu (UTC)  19-Sep-2020 00:06:45
Local (UTC-4)  18-Sep-2020 20:06:45
 
METAR
CYAM 182300Z 33009KT 20SM FEW018 FEW034 FEW250 FEW280 09/M01 A3036 RMK CF1CU1CI1CI1 CF TR CU TR CI TR SLP290
KANJ 
6nm E 
182355Z AUTO 31004KT 10SM CLR 08/00 A3036 RMK AO2 SLP284 T00830000 10128 20083 56001
KCIU 
14nm S 
182356Z AUTO 33006KT 10SM CLR 07/01 A3037 RMK AO2 SLP290 T00720011 10117 20072 53001
TAF
CYAM 181938Z 1820/1908 28010KT P6SM FEW040 BECMG 1900/1902 VRB03KT RMK NXT FCST BY 190200Z
NOTAMs
Click for the latest NOTAMs
NOTAMs are issued by the DoD/FAA and will open in a separate window not controlled by AirNav.

 

 
 

Would you like to see your business listed on this page?

 If your business provides an interesting product or service to pilots, flight crews, aircraft, or users of the Sault Ste Marie Airport, you should consider listing it here.  To start the listing process, click on the button below
 
Add a business
 

Other Pages about Sault Ste Marie Airport

Update a link
 
Copyright © AirNav, LLC. All rights reserved. Privacy Policy  Contact